Tracking 19396 objects as of 13-Dec-2018
HD Live streaming from Space Station
objects crossing your sky now

FENGYUN 1C DEB

Track FENGYUN 1C DEB now!
10-day predictions


NORAD ID: 37079
Int'l Code: 1999-025EFP
Perigee: 812.2 km
Apogee: 843.7 km
Inclination: 98.9 °
Period: 101.3 minutes
Semi major axis: 7198 km
RCS: 0.0038 m2 (small)
Launch date: May 10, 1999
Source: People's Republic of China (PRC)
Launch site: Taiyaun Space Center, China (TSC)

Note: This is SATELLITE DEBRIS
aabbcc
Your satellite tracking list
Your tracking list is empty




NASA's NSSDC Master Catalog

Two Line Element Set (TLE):
1 37079U 99025EFP 18345.39355016  .00000914  00000-0  43887-3 0  9991
2 37079  98.9248  35.3561 0021894  27.5735 332.6598 14.21345694509980
Source of the keplerian elements: AFSPC